Flag for Poland Weather past 2 weeks in Lublin, Poland

Now
63 °F

Sunny.


Feels Like: 63 °F
Forecast: 52 / 73 °F
Wind: 2 mph from Southwest

Location: Lublin Radawiec

Current Time: Apr 25, 2015 at 11:38:15 AM

Latest Report: Apr 25, 2015 at 10:00 AM


Visibility: 9 mi

Pressure: 29.95 "Hg

Humidity: 56%

Dew point: 47 °F

Location of LublinLocation

Historic Weather in Lublin — Graph

°F

Lublin temperature yesterday

Maximum temperature yesterday: 68 °F (at 3:00 PM)
Minimum temperature yesterday: 47 °F (at 6:00 AM)
Average temperature yesterday: 58 °F

Past Weeks' High & Low Weather Summary

 TemperatureHumidityPressure
High68 °F (Apr 24, 3:00 PM)95% (Apr 22, 6:00 AM)30.36 "Hg (Apr 22, 6:00 AM)
Low32 °F (Apr 22, 4:00 AM)24% (Apr 11, 4:00 PM)29.75 "Hg (Apr 16, 4:00 AM)
Average48 °F61%30.04 "Hg
* Reported Apr 10 10:00 AM — Apr 25 10:00 AM, Lublin, Weather by CustomWeather, © 2015

Note: Actual official high and low records may vary slightly from our data, if they occured in-between our weather recording intervals... More about our weather records

Advertising

Lublin weather history for previous 24 hours

 ConditionsComfort  
Time TempWeatherWind HumidityBarometerVisibility
10:00 AM
Sat, Apr 25
63 °FSunny.2 mph56%29.95 "Hg9 mi
9:00 AM60 °FPassing clouds.1 mph71%29.96 "Hg9 mi
8:00 AM54 °FPassing clouds.1 mph81%29.96 "Hg9 mi
7:00 AM49 °FFog.1 mph90%29.97 "Hg5 mi
6:00 AM49 °FOvercast.2 mph91%29.96 "Hg6 mi
5:00 AM46 °FOvercast.No wind90%29.96 "Hg9 mi
4:00 AM48 °FOvercast.1 mph86%29.96 "Hg12 mi
3:00 AM47 °FOvercast.1 mph89%29.96 "Hg12 mi
2:00 AM48 °FPassing clouds.1 mph86%29.95 "Hg12 mi
1:00 AM49 °FPassing clouds.1 mph82%29.95 "Hg8 mi
12:00 AM52 °FPassing clouds.1 mph76%29.95 "Hg11 mi
10:00 PM
Fri, Apr 24
54 °FOvercast.1 mph62%29.93 "Hg11 mi
9:00 PM56 °FOvercast.2 mph56%29.92 "Hg11 mi
8:00 PM60 °FPassing clouds.1 mph50%29.90 "Hg11 mi
7:00 PM64 °FScattered clouds.3 mph44%29.89 "Hg17 mi
6:00 PM66 °FPassing clouds.5 mph40%29.88 "Hg19 mi
5:00 PM67 °FPassing clouds.6 mph39%29.88 "Hg17 mi
4:00 PM68 °FScattered clouds.6 mph40%29.89 "Hg17 mi
3:00 PM68 °FScattered clouds.6 mph39%29.90 "Hg13 mi
2:00 PM66 °FPassing clouds.6 mph41%29.91 "Hg16 mi
1:00 PM65 °FPassing clouds.7 mph42%29.93 "Hg10 mi
12:00 PM64 °FPassing clouds.8 mph42%29.93 "Hg14 mi
11:00 AM62 °FPassing clouds.6 mph46%29.95 "Hg16 mi
Weather by CustomWeather, © 2015

See weather overviewHow to use our weather pages